Terug naar catalogus

SATCOM 3 DEB

ActiefHEO
NORAD 32984·DEBRIS·🇺🇸 United States

Gelanceerd Dec 7, 1979 vanaf Cape Canaveral Space Force Station

Loading…

Volgende Passages (komende 24 uur)

TLE

VersSource: Space-Track

Epoch: Sep 14, 2026, 12:24 UTC

1 32984U 79101K   26257.51720368 -.00000154  00000-0  00000-0 0  9999
2 32984   9.7674  66.3611 4850501 130.0865 195.1066  1.82640562 91305

Volg SATCOM 3 DEB in realtime met AllMySat

Download on the App Store